Precipitable_Water
0.71 0.81 0.86 0.85 0.87 0.90 0.93 0.96 0.98 1.01 1.05 1.07 1.08 1.10 1.06 1.04 1.15 1.21 1.04 1.15 1.18 1.35 1.67 1.69 1.57 1.49 1.46 1.30 1.29 1.39 1.04 0.85 0.82 1.04 0.92 1.08 1.12 1.23 1.30 1.24 1.30 1.27 1.32 1.41 1.47
0.64 0.69 0.77 0.82 0.82 0.86 0.89 0.92 0.95 1.01 1.05 1.09 1.09 1.11 1.09 1.14 1.24 1.22 1.34 1.26 1.22 1.37 1.57 1.39 1.22 1.25 1.21 1.18 1.18 1.31 0.89 0.78 0.92 0.96 0.95 1.05 1.17 1.19 1.27 1.26 1.28 1.29 1.40 1.53 1.44
0.49 0.56 0.66 0.74 0.79 0.79 0.83 0.88 0.90 0.97 1.05 1.09 1.08 1.09 1.06 1.18 1.16 1.16 1.41 1.34 1.31 1.49 1.59 1.36 1.29 1.19 1.18 1.05 0.98 1.12 0.77 0.90 0.95 0.97 1.00 1.03 1.10 1.22 1.21 1.36 1.32 1.28 1.29 1.36 1.31
0.46 0.47 0.49 0.62 0.71 0.77 0.79 0.83 0.88 0.93 1.03 1.07 1.09 1.12 1.05 1.18 0.87 1.20 1.33 1.35 1.47 1.67 1.56 1.39 1.30 1.19 1.10 1.03 0.95 1.24 0.85 0.86 0.87 0.94 0.97 0.96 1.11 1.11 1.17 1.22 1.32 1.40 1.32 1.29 1.30
0.42 0.43 0.45 0.45 0.59 0.69 0.74 0.78 0.83 0.89 0.96 1.03 1.04 1.09 1.03 0.92 1.08 1.31 1.37 1.40 1.54 1.64 1.47 1.32 1.30 1.35 0.98 1.01 1.03 0.96 0.90 0.93 0.97 1.00 1.02 1.04 1.01 1.01 1.10 1.24 1.32 1.35 1.32 1.31 1.35
0.39 0.39 0.40 0.42 0.43 0.55 0.66 0.70 0.77 0.83 0.88 0.95 0.99 1.07 1.02 0.70 1.30 1.42 1.41 1.46 1.56 1.54 1.41 1.33 1.18 1.22 1.19 1.03 0.92 0.85 0.86 0.87 0.88 0.95 0.97 0.97 1.02 1.03 1.06 1.20 1.22 1.25 1.27 1.35 1.39
0.38 0.36 0.37 0.39 0.40 0.41 0.52 0.61 0.70 0.81 0.85 0.84 0.91 0.98 0.90 0.74 1.29 1.41 1.47 1.44 1.55 1.45 1.25 1.34 1.28 1.20 1.15 0.99 0.94 0.87 0.82 0.84 0.86 0.94 0.93 0.93 0.97 0.90 1.09 1.10 1.15 1.22 1.29 1.34 1.36
0.36 0.35 0.36 0.36 0.37 0.38 0.38 0.49 0.64 0.75 0.80 0.79 0.85 0.91 0.82 0.97 1.27 1.28 1.40 1.39 1.47 1.47 1.32 1.37 1.35 1.16 1.13 1.11 1.09 0.95 0.98 0.70 0.72 0.85 0.96 0.92 0.87 0.94 1.07 1.05 1.05 1.15 1.28 1.31 1.34
0.40 0.37 0.34 0.36 0.35 0.35 0.36 0.38 0.56 0.66 0.69 0.73 0.75 0.78 0.71 0.98 1.05 1.25 1.34 1.26 1.35 1.37 1.35 1.30 1.19 0.98 0.91 1.18 0.99 0.72 0.57 0.55 0.74 0.81 0.90 0.89 0.86 1.01 1.02 0.98 0.99 1.05 1.15 1.26 1.33
0.48 0.44 0.39 0.36 0.35 0.33 0.34 0.44 0.50 0.54 0.58 0.68 0.69 0.62 0.70 0.80 1.01 1.18 1.30 1.31 1.23 1.23 1.14 1.10 1.00 0.85 1.10 0.84 0.68 0.56 0.56 0.62 0.55 0.67 0.76 0.79 0.82 0.95 1.04 1.03 0.95 0.94 1.09 1.16 1.26
0.51 0.46 0.41 0.38 0.34 0.34 0.41 0.41 0.35 0.31 0.40 0.39 0.39 0.59 0.55 0.73 1.04 1.07 1.18 1.14 1.18 1.06 0.89 1.02 0.80 0.80 0.87 0.71 0.65 0.63 0.58 0.59 0.56 0.63 0.62 0.69 0.74 0.84 0.94 0.95 0.99 0.94 0.88 1.02 1.19
0.53 0.43 0.39 0.36 0.34 0.42 0.47 0.41 0.36 0.43 0.25 0.32 0.36 0.39 0.47 0.62 0.57 0.79 1.12 0.96 0.97 0.84 0.90 0.85 0.67 0.73 0.71 0.63 0.60 0.60 0.60 0.67 0.55 0.59 0.52 0.59 0.65 0.73 0.82 0.86 0.92 0.98 0.91 0.86 1.00
0.46 0.39 0.36 0.35 0.37 0.42 0.44 0.33 0.37 0.37 0.23 0.25 0.21 0.27 0.34 0.40 0.44 0.54 0.81 0.88 0.83 0.83 0.81 0.75 0.77 1.03 0.72 0.62 0.55 0.57 0.64 0.62 0.50 0.50 0.60 0.55 0.64 0.72 0.72 0.84 0.91 0.97 1.00 0.89 0.87
0.39 0.36 0.35 0.36 0.36 0.39 0.37 0.36 0.38 0.36 0.23 0.23 0.23 0.22 0.21 0.22 0.27 0.40 0.61 0.63 0.71 0.72 0.75 0.75 0.80 0.74 0.69 0.58 0.56 0.48 0.69 0.54 0.51 0.47 0.41 0.54 0.58 0.85 0.70 0.67 0.78 0.89 0.92 0.91 0.84
0.36 0.34 0.34 0.43 0.38 0.36 0.37 0.38 0.37 0.32 0.18 0.27 0.25 0.33 0.28 0.23 0.22 0.18 0.35 0.47 0.46 0.51 0.63 0.61 0.67 0.66 0.62 0.59 0.59 0.52 0.59 0.51 0.51 0.50 0.47 0.54 0.56 0.68 0.68 0.74 0.77 0.82 0.88 0.90 0.88
0.41 0.36 0.38 0.36 0.37 0.34 0.38 0.39 0.30 0.17 0.18 0.22 0.23 0.25 0.25 0.28 0.25 0.23 0.24 0.24 0.38 0.42 0.44 0.47 0.60 0.62 0.59 0.66 0.57 0.55 0.51 0.50 0.50 0.47 0.39 0.56 0.50 0.63 0.73 0.52 0.56 0.85 0.85 0.91 0.86
0.56 0.49 0.42 0.41 0.37 0.38 0.39 0.31 0.23 0.17 0.21 0.21 0.22 0.24 0.23 0.25 0.25 0.26 0.26 0.29 0.25 0.23 0.26 0.35 0.36 0.47 0.52 0.47 0.56 0.52 0.46 0.38 0.35 0.42 0.44 0.61 0.50 0.46 0.70 0.56 0.52 0.54 0.69 0.80 0.84
0.58 0.57 0.51 0.44 0.41 0.40 0.35 0.24 0.17 0.19 0.18 0.24 0.22 0.23 0.22 0.27 0.27 0.26 0.22 0.23 0.33 0.28 0.19 0.23 0.30 0.38 0.39 0.38 0.43 0.48 0.47 0.42 0.36 0.35 0.45 0.71 0.50 0.44 0.65 0.56 0.49 0.59 0.62 0.71 0.78
0.61 0.65 0.53 0.43 0.41 0.35 0.27 0.20 0.21 0.23 0.22 0.19 0.16 0.15 0.21 0.25 0.24 0.27 0.27 0.24 0.37 0.33 0.26 0.26 0.27 0.35 0.48 0.50 0.47 0.40 0.37 0.44 0.40 0.41 0.36 0.44 0.57 0.46 0.56 0.54 0.49 0.52 0.63 0.69 0.82
0.54 0.55 0.49 0.47 0.41 0.30 0.23 0.19 0.24 0.25 0.23 0.20 0.16 0.20 0.17 0.23 0.24 0.25 0.27 0.36 0.31 0.32 0.32 0.26 0.24 0.38 0.39 0.43 0.41 0.37 0.40 0.33 0.36 0.29 0.31 0.35 0.48 0.42 0.54 0.58 0.54 0.47 0.61 0.80 0.86
0.56 0.50 0.48 0.47 0.46 0.35 0.23 0.28 0.29 0.30 0.27 0.23 0.23 0.22 0.22 0.21 0.22 0.20 0.22 0.31 0.34 0.32 0.34 0.28 0.24 0.23 0.29 0.33 0.29 0.25 0.26 0.29 0.31 0.34 0.29 0.30 0.32 0.51 0.61 0.61 0.53 0.50 0.54 0.77 0.93
0.57 0.45 0.42 0.41 0.41 0.34 0.32 0.32 0.31 0.30 0.35 0.33 0.31 0.29 0.27 0.27 0.25 0.23 0.21 0.25 0.38 0.32 0.26 0.33 0.32 0.24 0.24 0.30 0.35 0.31 0.32 0.35 0.27 0.26 0.26 0.25 0.34 0.69 0.62 0.60 0.56 0.55 0.60 0.62 0.84
0.37 0.32 0.37 0.37 0.35 0.32 0.34 0.33 0.33 0.33 0.35 0.35 0.33 0.36 0.37 0.33 0.29 0.32 0.31 0.36 0.37 0.30 0.29 0.35 0.29 0.21 0.20 0.22 0.25 0.26 0.29 0.28 0.26 0.29 0.29 0.30 0.28 0.41 0.55 0.67 0.65 0.63 0.68 0.67 0.67
0.41 0.33 0.32 0.35 0.32 0.27 0.27 0.29 0.26 0.33 0.28 0.33 0.31 0.34 0.30 0.30 0.34 0.33 0.35 0.40 0.44 0.40 0.41 0.35 0.23 0.18 0.16 0.22 0.29 0.32 0.36 0.34 0.33 0.27 0.27 0.28 0.32 0.44 0.55 0.58 0.63 0.70 0.72 0.72 0.77
0.40 0.35 0.34 0.30 0.30 0.29 0.28 0.28 0.27 0.27 0.35 0.31 0.30 0.35 0.33 0.28 0.29 0.28 0.31 0.34 0.38 0.43 0.40 0.38 0.26 0.29 0.27 0.26 0.25 0.29 0.33 0.35 0.33 0.33 0.29 0.32 0.34 0.36 0.41 0.58 0.64 0.62 0.73 0.73 0.74
0.43 0.38 0.40 0.38 0.32 0.30 0.27 0.30 0.27 0.28 0.26 0.25 0.25 0.29 0.30 0.26 0.27 0.26 0.29 0.31 0.31 0.34 0.35 0.36 0.30 0.32 0.28 0.33 0.31 0.27 0.26 0.28 0.31 0.32 0.30 0.31 0.33 0.41 0.45 0.50 0.51 0.55 0.72 0.71 0.72
0.58 0.58 0.47 0.37 0.33 0.29 0.28 0.26 0.25 0.26 0.29 0.31 0.27 0.24 0.22 0.24 0.28 0.28 0.27 0.27 0.27 0.26 0.26 0.27 0.28 0.27 0.23 0.30 0.32 0.26 0.28 0.28 0.27 0.26 0.27 0.25 0.28 0.38 0.39 0.39 0.43 0.47 0.69 0.71 0.73
Wind_Speed
7 6 6 5 5 5 5 5 5 6 6 6 7 7 7 7 7 8 7 9 9 11 10 10 8 6 5 3 4 3 2 5 4 4 4 3 2 1 2 2 4 4 5 14 16
8 7 6 6 5 4 4 3 3 4 4 5 5 6 6 7 7 7 10 9 10 11 10 9 7 6 3 4 4 0 1 6 4 5 4 3 0 0 2 2 2 5 8 14 17
9 9 8 7 7 6 5 4 3 2 2 3 3 4 5 6 5 9 9 11 12 12 9 8 6 5 3 3 2 3 5 3 4 5 3 3 1 1 3 2 4 8 11 15 18
11 11 10 10 9 8 7 6 5 4 2 1 1 2 3 3 4 7 9 10 11 11 9 7 5 5 4 5 3 1 5 3 3 4 3 2 2 1 1 4 3 10 13 16 17
12 12 12 12 11 11 10 9 8 7 5 4 3 1 1 3 6 6 8 9 9 7 6 4 4 11 9 4 3 1 2 1 1 1 1 3 2 4 2 3 6 11 14 15 15
13 13 13 13 13 13 12 12 11 10 9 7 6 4 4 4 3 6 7 8 6 5 2 2 5 6 3 3 5 3 0 1 0 0 0 1 1 2 4 4 8 11 14 14 14
13 13 13 13 14 14 14 14 13 13 11 10 9 7 8 4 6 7 7 7 5 4 2 0 2 3 4 2 3 1 3 4 2 1 0 2 3 2 4 5 8 11 13 13 14
14 13 13 13 14 14 15 14 14 14 13 13 11 10 8 8 7 8 9 7 6 5 4 2 3 5 5 3 7 6 8 4 5 1 1 1 2 3 5 6 8 11 12 13 13
14 14 13 12 12 12 13 14 14 14 14 14 13 13 12 10 12 11 10 9 7 7 5 5 6 6 6 6 3 3 6 7 4 2 0 3 5 4 6 7 8 10 12 13 13
15 14 13 12 11 10 11 12 12 13 15 15 16 14 16 12 14 14 13 11 10 8 8 8 8 9 9 7 5 7 7 6 6 3 2 4 7 2 6 7 8 9 13 14 14
15 14 12 11 9 8 7 8 10 12 17 17 12 19 12 13 15 15 15 14 13 12 12 12 9 10 10 5 6 7 7 8 5 3 6 5 7 8 7 9 9 10 12 14 15
14 12 10 8 6 4 4 7 6 7 10 17 18 18 16 15 15 16 17 17 16 17 16 15 14 11 6 8 8 9 10 9 6 10 8 5 7 6 10 10 11 11 11 14 15
13 10 8 6 5 1 2 2 5 7 9 10 13 17 18 20 22 19 19 20 21 19 19 18 19 8 9 12 11 12 9 9 10 13 14 8 12 7 7 8 10 12 12 13 16
11 8 6 5 4 2 0 1 3 5 6 8 10 9 12 15 22 24 21 22 23 24 24 22 20 17 14 15 14 16 9 11 12 12 12 8 4 10 6 7 8 10 13 14 15
10 7 4 4 5 3 2 2 1 3 4 4 5 6 8 11 6 13 22 22 25 25 23 25 23 20 20 17 14 15 15 13 15 15 16 6 2 7 9 6 9 10 13 15 15
9 6 4 4 3 4 2 2 2 3 1 2 3 5 9 11 12 10 11 18 22 25 28 30 27 25 20 20 18 16 17 19 19 17 16 6 12 3 9 4 6 9 9 14 16
8 7 5 3 3 3 2 1 2 3 1 0 2 4 5 5 8 11 13 14 15 18 24 26 29 30 26 26 24 22 20 17 17 14 13 8 9 9 11 3 3 3 6 10 15
7 6 5 4 4 2 1 3 5 3 3 3 5 7 9 4 8 9 11 14 16 18 20 19 20 24 26 27 23 23 21 19 18 17 10 8 10 6 4 0 2 3 4 10 15
6 4 5 7 4 1 2 4 4 4 5 7 10 9 10 7 10 8 10 13 5 8 14 16 20 21 18 16 21 23 26 25 25 24 22 17 14 12 11 6 3 5 2 9 13
4 3 6 7 4 1 3 5 4 5 8 8 10 5 10 7 9 12 9 6 12 11 13 17 19 18 16 17 20 24 22 21 20 24 24 21 14 10 10 8 5 3 2 7 13
3 2 6 7 3 2 5 3 4 5 8 8 9 10 12 13 13 15 15 10 11 15 15 18 20 21 19 17 21 19 21 25 25 22 20 19 20 17 8 8 8 4 3 4 14
4 4 8 7 4 4 5 5 6 8 7 9 10 12 13 14 15 17 17 16 11 15 18 18 17 20 23 21 19 20 20 18 20 26 24 25 21 4 10 12 7 6 6 5 7
6 4 7 8 4 5 5 7 8 11 10 10 11 11 14 16 17 15 15 13 16 18 17 16 18 21 25 25 26 23 25 26 26 23 25 21 22 25 18 12 10 10 9 8 8
6 4 7 5 7 9 10 8 11 9 14 13 15 16 18 18 19 20 20 18 17 20 17 20 25 28 27 27 23 20 19 21 24 22 22 25 24 18 12 14 12 12 12 11 9
7 6 8 9 10 12 12 12 14 14 13 17 15 14 16 18 20 22 23 23 22 19 23 24 30 29 31 32 33 34 30 28 28 27 27 23 21 21 20 9 13 14 14 14 12
8 10 12 12 12 14 10 11 16 15 17 17 17 18 20 22 23 25 27 27 28 28 28 27 30 30 35 34 35 37 38 38 38 36 35 33 33 28 24 23 17 15 17 18 16
13 12 13 12 15 15 14 16 18 18 16 15 18 21 23 24 25 27 29 30 31 31 30 30 30 31 36 33 33 39 38 38 39 40 39 41 40 34 33 32 29 24 21 22 20
Wind_Direction
343 344 345 350 357 7 18 27 34 39 43 43 45 53 59 59 61 80 87 90 111 116 123 119 120 124 106 102 135 85 86 83 62 77 94 131 159 222 284 187 225 222 216 179 174
322 323 322 321 323 328 340 356 10 23 33 38 50 56 60 63 81 91 84 98 114 118 119 121 120 117 132 117 130 233 68 63 39 36 80 120 272 185 265 173 201 203 155 167 173
310 306 304 302 300 298 295 303 314 338 6 33 50 58 63 71 86 90 98 100 111 119 106 98 95 102 171 98 119 51 74 68 60 33 25 86 47 42 249 10 188 177 168 170 173
301 298 293 289 286 283 278 275 276 278 280 301 95 61 73 100 94 101 114 111 113 114 102 98 112 192 101 83 112 235 85 80 67 67 77 71 77 27 44 52 117 157 161 167 173
305 295 289 284 278 273 269 266 264 260 255 244 233 196 136 154 99 124 130 129 126 119 116 83 3 347 68 57 145 28 62 47 36 29 23 64 74 44 108 81 126 143 157 165 173
312 300 291 282 276 270 264 260 258 254 246 237 227 219 201 228 158 151 147 149 149 148 121 79 41 30 24 26 2 48 94 282 163 226 6 264 68 44 96 116 136 147 157 163 169
318 308 296 285 275 269 262 258 255 249 241 233 225 223 232 225 187 180 173 175 179 188 228 207 357 342 358 317 60 53 241 162 115 171 49 240 216 203 132 138 147 158 163 165 167
325 316 305 293 280 268 262 258 250 244 235 228 225 227 237 211 205 198 197 202 209 217 235 265 284 292 255 280 342 70 303 94 63 76 119 264 134 188 162 162 163 171 175 175 177
330 323 313 302 290 273 260 256 246 239 231 225 227 228 235 223 218 212 205 213 217 227 243 259 272 259 275 99 25 63 35 37 83 69 110 227 351 148 173 178 177 183 183 185 185
328 325 319 307 297 279 262 246 240 236 230 229 235 235 228 231 213 218 222 227 227 238 250 241 242 248 321 295 18 15 0 20 26 42 288 253 255 204 196 198 194 193 194 195 195
326 323 322 317 303 287 261 232 235 236 227 227 235 226 225 228 226 227 224 228 232 239 248 233 259 273 254 335 324 309 313 335 16 347 320 275 255 241 208 214 211 199 204 202 204
332 329 328 328 321 295 247 238 232 233 245 229 235 237 238 232 234 232 227 229 229 239 240 244 242 272 300 293 294 291 283 335 313 320 289 282 303 262 211 217 215 210 208 208 206
338 336 337 343 343 313 263 223 238 237 236 219 233 238 240 235 240 240 230 235 243 240 247 256 252 264 285 273 277 281 303 306 311 312 300 255 320 241 204 198 215 220 215 213 209
348 349 355 11 17 54 96 271 259 229 241 202 225 229 236 243 249 241 233 239 240 245 249 257 261 266 275 271 272 275 313 304 294 304 303 283 274 249 172 206 216 223 221 216 212
1 8 25 19 24 34 43 3 321 191 240 213 208 232 235 240 271 237 235 236 244 249 246 250 255 256 253 261 278 279 287 287 284 283 286 312 295 297 254 201 220 227 223 220 214
10 19 25 28 28 35 33 24 97 193 263 162 226 238 238 237 244 240 245 241 247 249 250 256 257 255 258 260 267 271 279 277 271 266 269 201 245 278 287 15 8 206 222 219 212
13 21 22 14 12 3 16 87 221 290 290 279 260 262 260 248 245 242 243 236 242 241 249 253 250 251 251 256 256 255 262 274 268 260 265 291 284 206 276 3 8 339 217 212 205
2 5 14 4 342 332 295 257 284 8 307 336 286 281 263 275 247 260 259 258 242 252 263 265 251 244 246 242 251 252 257 259 278 271 248 270 260 154 294 157 6 347 321 192 191
334 349 6 356 346 315 273 259 332 345 322 309 293 265 266 246 264 279 257 267 287 269 276 274 263 259 255 243 244 249 246 256 264 269 273 262 251 257 238 244 311 354 23 177 180
339 332 7 358 353 286 269 289 332 314 311 298 287 294 284 292 287 280 270 270 266 265 274 269 277 265 263 249 250 257 258 258 244 252 261 267 270 258 200 226 244 292 353 195 190
355 352 3 354 357 284 293 347 316 320 317 307 306 292 286 287 282 277 275 275 270 274 272 271 270 265 266 247 258 263 242 244 255 255 258 252 251 251 229 215 234 235 261 213 204
342 322 349 345 305 322 327 324 319 310 304 298 291 289 290 293 286 281 275 272 275 282 276 271 272 266 264 259 254 259 262 261 238 244 251 257 255 206 224 223 228 229 243 235 235
340 338 347 330 320 339 329 303 304 308 309 302 293 294 297 291 293 286 279 282 282 281 282 281 260 264 261 255 254 252 252 253 254 257 253 255 247 246 256 225 227 235 244 241 240
334 316 341 360 341 322 323 309 305 307 301 299 292 292 289 285 283 278 277 279 279 276 274 273 266 262 262 266 266 275 263 252 254 249 249 245 255 250 216 226 239 238 241 239 240
343 336 327 320 322 320 312 309 306 306 305 300 295 286 298 293 292 287 284 283 277 277 273 266 266 266 265 265 262 260 259 258 256 254 253 254 251 242 236 221 245 248 237 236 239
330 324 319 303 306 310 302 314 304 307 305 296 297 298 296 291 291 291 288 282 278 278 274 269 268 269 266 264 263 261 256 256 253 252 254 255 253 248 247 249 259 250 240 240 241
331 319 310 305 312 310 308 307 305 305 303 295 299 298 295 294 295 290 285 281 278 277 274 271 270 268 266 266 264 257 251 254 256 254 252 250 250 250 249 248 255 255 243 241 242